Vertical_Velocity
-3 0 -2 -6 -2 4 -2 1 -3 0 3 -0 -2 -5 4 0 -3 -3 3 -6 -3 3 -0 -3 1 -1 3 2 -8 -3 2 -3 8 -3 2 -1 5 1 -1 2 -1 -1 -3
-4 -1 -1 -2 -3 -0 -4 -5 -1 -8 2 4 -4 -4 -3 -4 3 1 -1 3 -1 3 2 2 -1 4 1 -2 -3 -1 -7 0 6 -4 3 -5 0 -2 -1 -4 -1 -2 -1
1 -3 -1 -2 -4 -1 -1 -3 -1 -5 -1 -1 -0 1 -2 -0 1 -1 -3 -2 2 5 4 1 -0 3 0 2 -0 -4 4 3 1 -5 3 7 2 1 -0 2 1 1 2
-2 -1 -4 -4 -1 -2 -4 -3 -1 -1 0 1 -1 -4 -0 1 -2 -1 0 -2 -4 -2 -2 1 1 -1 -0 2 1 0 -3 -1 0 -2 -1 7 3 -2 1 9 3 -2 3
-0 -2 -5 -1 -2 0 0 0 -3 -1 -1 -3 1 5 0 -2 1 -1 -2 -3 -3 -1 -1 -1 3 1 1 2 3 1 -1 -2 0 -0 -2 -1 2 -1 -1 6 -8 5 -2
-1 -4 -1 -2 -0 -3 -2 -2 12 2 8 14 -1 -5 -2 -4 -2 4 4 1 4 -1 -2 -1 0 2 -1 -1 -1 -1 3 1 0 -1 1 2 2 -1 4 -0 -0 -1 -9
4 2 1 1 -0 0 5 2 3 5 4 -1 3 0 3 2 1 0 -1 2 3 2 -1 1 -2 0 -1 2 2 0 5 3 1 4 -3 -2 -2 3 5 1 3 -0 -4
4 4 3 0 -0 -1 -2 -3 0 3 1 3 2 0 -0 -3 -1 3 3 1 3 0 0 3 -0 -1 -3 2 -1 -3 -1 7 -1 -1 -2 -2 -1 4 6 5 4 2 1
3 0 1 -1 -3 -1 -4 -1 1 1 -1 -2 -2 -0 -0 0 -1 -0 -1 -1 -3 -0 1 2 1 -4 -1 1 7 -2 3 2 3 -2 -1 1 2 3 2 4 -5 5 -5
3 4 2 -0 1 -1 2 -2 -3 -0 0 1 3 3 1 0 -0 1 1 0 -4 -2 1 5 -3 -3 -2 3 1 0 -5 -1 -2 -2 1 -1 1 2 7 7 11 2 6
2 1 1 3 3 1 3 -2 -2 -3 -2 -1 -3 0 -3 -2 -1 -1 1 1 -1 -1 -0 2 4 3 -1 0 1 1 1 -1 -0 -1 -2 0 4 3 7 1 3 6 5
-1 0 4 1 3 2 -0 -1 -1 -0 -2 -2 1 -1 -2 -1 -1 -1 0 2 0 1 0 0 -3 1 -0 3 1 -1 1 -0 -1 -1 -1 0 -2 -4 -2 1 -1 1 6
5 4 5 3 -3 1 2 -1 -3 -3 -2 -2 -1 -2 -1 -0 1 -0 -1 -3 -0 -1 -2 1 2 2 0 -0 -2 -1 -1 -3 -2 -1 -2 -1 -0 -1 0 2 3 1 1
6 0 1 1 -2 -1 2 3 1 -1 -2 -2 -2 -3 -2 -2 -3 0 -2 0 0 -0 1 0 1 0 -1 -0 -1 -1 -1 -1 -1 -1 -2 -3 -2 -0 -2 -3 -5 -5 -5
0 1 4 8 1 -2 1 1 -1 -1 2 0 -1 -0 -1 -7 -3 -1 -1 -2 2 -1 -0 1 1 0 -0 -0 -0 0 -1 -1 -1 -1 -1 -3 -3 -2 -3 -2 -1 -3 -2
3 2 -0 -4 3 1 3 -0 -2 1 1 0 1 1 1 -0 -1 -1 -0 -2 -1 1 1 -0 -2 -1 0 -0 -2 -3 -3 -3 -3 -4 -3 -2 -1 -2 -2 -2 -3 -5 -4
1 0 3 3 3 -3 -4 -0 -4 -3 -1 -0 0 -1 -0 1 -3 1 3 -0 -3 -0 -2 -1 -1 -1 1 -0 -1 -0 -1 -2 -3 -3 -2 -1 -2 -3 -2 -2 -2 1 2
15 4 9 3 3 2 0 -1 -1 -7 -4 -1 1 -3 -0 0 1 2 3 2 -0 1 -0 -2 -0 -3 -2 -3 -2 -3 -2 -2 -2 -2 -2 -3 -3 -3 -3 -3 -2 -4 -0
-44 -20 1 0 2 5 9 2 1 3 -7 -5 -1 0 -3 -2 3 0 -3 1 0 -1 -1 1 -0 -0 -2 -2 -3 -3 -2 -2 -2 -1 -1 -1 -2 -1 -1 -3 -4 -1 1
-6 -25 -21 -0 7 -3 5 2 3 5 3 -8 -1 0 -4 -1 1 1 2 1 -1 2 -2 1 2 -0 -0 -3 -2 -3 -1 -2 -0 -2 -3 -2 -2 -1 -1 -2 -2 -2 0
-2 -12 17 2 3 -5 0 5 -1 2 -2 3 -3 -6 -4 1 -2 -4 -1 -1 -2 -3 -1 2 1 1 1 2 -2 -1 -5 -6 -3 -6 -4 -3 -5 -4 1 0 1 1 0
6 5 3 1 -3 -5 6 -10 6 -1 3 -3 -1 -1 -5 -2 2 -4 -4 -4 -2 -0 -0 2 -3 3 3 -1 -1 2 -0 -5 0 1 -4 -2 -2 -3 -3 -3 -0 1 -1
12 3 -2 0 7 1 -4 -5 6 3 -2 -5 0 1 -6 -7 2 -2 -1 -7 -4 2 -0 -1 -3 -3 1 2 -4 -2 -2 3 -1 0 -1 2 -1 -1 0 -2 -4 -0 -3
7 -1 -4 -5 5 7 -2 3 0 -4 -5 0 1 0 -10 -5 -1 4 -5 2 -2 -5 -1 1 -1 -4 3 1 -1 -2 -2 -1 -0 -5 1 4 -3 -1 0 3 -4 4 4
2 -5 -6 -5 1 4 -2 -11 8 4 -5 -3 -3 6 -4 -0 1 2 -2 1 -1 -4 -2 -1 1 -3 -2 0 1 -3 -2 -2 4 7 2 -1 3 -2 -4 -0 -1 3 -6
1 -4 -4 1 2 -0 -4 -7 -7 3 -7 -3 3 -1 4 2 -4 -6 6 1 -4 -7 -2 2 -0 -10 0 2 -6 -1 1 -3 -2 1 7 1 0 1 4 -2 1 0 1
Height
1517 1521 1526 1530 1534 1538 1541 1544 1548 1550 1554 1555 1555 1557 1559 1560 1561 1562 1562 1564 1565 1568 1569 1570 1570 1571 1569 1568 1567 1567 1567 1569 1568 1567 1568 1568 1569 1570 1569 1569 1570 1571 1571
1512 1516 1520 1525 1529 1533 1536 1540 1544 1546 1549 1551 1551 1554 1556 1557 1559 1560 1560 1562 1564 1565 1566 1567 1568 1567 1567 1565 1564 1565 1565 1566 1567 1566 1566 1566 1566 1567 1566 1566 1567 1568 1568
1507 1511 1515 1519 1524 1528 1531 1535 1538 1541 1543 1546 1549 1550 1552 1554 1555 1556 1557 1558 1559 1559 1560 1561 1562 1563 1564 1564 1565 1564 1564 1564 1563 1563 1564 1564 1564 1564 1564 1564 1564 1564 1564
1501 1505 1509 1513 1518 1523 1527 1530 1533 1536 1538 1541 1544 1546 1547 1549 1550 1551 1552 1554 1554 1555 1555 1556 1558 1558 1558 1559 1560 1560 1560 1560 1560 1560 1560 1561 1561 1561 1561 1561 1561 1561 1559
1494 1499 1502 1508 1513 1518 1522 1526 1530 1532 1534 1536 1538 1541 1542 1543 1544 1545 1547 1549 1550 1550 1551 1552 1553 1554 1554 1554 1554 1555 1555 1555 1555 1555 1555 1556 1557 1557 1556 1558 1557 1557 1554
1489 1492 1496 1502 1507 1512 1516 1520 1524 1526 1527 1531 1532 1535 1537 1538 1539 1540 1542 1543 1544 1545 1546 1547 1548 1549 1549 1549 1549 1549 1550 1550 1551 1552 1552 1551 1552 1552 1552 1551 1551 1550 1548
1488 1489 1491 1495 1500 1505 1511 1515 1516 1519 1522 1526 1528 1530 1532 1532 1534 1535 1537 1538 1538 1539 1540 1542 1542 1543 1544 1543 1543 1543 1544 1546 1546 1546 1545 1545 1546 1547 1548 1547 1546 1544 1543
1487 1488 1488 1490 1493 1497 1503 1507 1511 1513 1517 1519 1522 1523 1525 1526 1527 1528 1528 1531 1531 1533 1534 1536 1538 1538 1539 1540 1539 1538 1539 1540 1541 1541 1540 1540 1540 1540 1541 1541 1541 1540 1538
1484 1484 1484 1485 1488 1490 1493 1499 1504 1508 1511 1514 1516 1517 1518 1519 1520 1521 1521 1523 1524 1525 1527 1530 1530 1531 1532 1534 1534 1534 1534 1534 1535 1535 1535 1535 1535 1535 1535 1534 1533 1533 1530
1485 1483 1481 1482 1483 1486 1488 1492 1497 1501 1504 1507 1509 1511 1512 1513 1514 1515 1515 1515 1516 1517 1520 1522 1523 1523 1525 1527 1528 1528 1528 1529 1528 1528 1529 1528 1529 1528 1529 1528 1528 1525 1523
1482 1483 1483 1483 1481 1484 1485 1487 1491 1495 1498 1500 1502 1504 1505 1507 1508 1509 1509 1509 1510 1510 1513 1515 1516 1518 1520 1521 1522 1522 1522 1521 1522 1522 1521 1521 1520 1520 1520 1518 1517 1516 1514
1477 1480 1480 1481 1484 1482 1483 1483 1486 1489 1492 1496 1498 1499 1500 1502 1503 1504 1504 1505 1505 1507 1508 1509 1511 1513 1515 1516 1517 1517 1516 1516 1515 1514 1513 1512 1511 1510 1509 1508 1507 1506 1504
1475 1477 1478 1478 1480 1484 1481 1481 1483 1485 1487 1491 1494 1495 1497 1499 1500 1500 1501 1501 1502 1502 1504 1506 1508 1509 1510 1511 1510 1510 1510 1509 1507 1506 1504 1504 1503 1502 1501 1499 1498 1497 1496
1471 1475 1478 1477 1478 1481 1481 1479 1480 1481 1483 1487 1489 1490 1493 1495 1496 1496 1497 1498 1498 1499 1500 1502 1504 1505 1505 1506 1506 1505 1504 1503 1501 1499 1498 1497 1496 1495 1494 1492 1490 1489 1487
1470 1473 1477 1477 1475 1477 1477 1476 1477 1480 1481 1482 1486 1487 1488 1490 1491 1492 1494 1495 1496 1497 1499 1500 1502 1503 1503 1503 1503 1502 1501 1500 1499 1496 1494 1492 1491 1489 1487 1485 1482 1480 1479
1468 1468 1472 1476 1476 1477 1476 1475 1476 1479 1479 1481 1483 1484 1484 1485 1487 1489 1490 1492 1495 1496 1498 1499 1500 1501 1502 1501 1501 1501 1500 1499 1497 1496 1494 1491 1489 1486 1484 1481 1479 1477 1476
1464 1469 1471 1472 1473 1472 1473 1472 1471 1475 1477 1477 1480 1481 1481 1482 1485 1487 1488 1490 1493 1496 1497 1498 1499 1500 1501 1500 1500 1500 1500 1499 1498 1497 1495 1492 1490 1488 1486 1483 1480 1478 1476
1467 1472 1475 1472 1475 1472 1469 1469 1468 1469 1474 1476 1477 1479 1480 1482 1484 1487 1489 1490 1492 1495 1496 1497 1497 1498 1498 1499 1500 1499 1499 1498 1498 1497 1495 1493 1492 1490 1489 1486 1483 1482 1481
1451 1467 1471 1470 1473 1474 1470 1467 1468 1466 1468 1475 1477 1477 1480 1483 1484 1485 1488 1490 1491 1493 1494 1496 1496 1496 1496 1497 1497 1498 1497 1497 1497 1496 1495 1494 1493 1492 1491 1490 1488 1487 1487
1440 1442 1453 1463 1466 1467 1470 1468 1468 1467 1467 1471 1476 1477 1480 1482 1483 1484 1486 1488 1490 1490 1491 1493 1494 1494 1494 1495 1495 1496 1496 1496 1496 1495 1495 1494 1494 1493 1492 1492 1492 1491 1491
1434 1443 1449 1453 1459 1461 1465 1465 1465 1466 1467 1468 1472 1476 1479 1481 1481 1482 1483 1485 1487 1488 1490 1490 1491 1491 1492 1492 1492 1493 1494 1494 1494 1494 1494 1493 1493 1494 1494 1493 1493 1492 1492
1436 1439 1444 1449 1453 1457 1459 1461 1463 1463 1464 1467 1470 1472 1476 1479 1478 1478 1479 1482 1483 1484 1486 1486 1488 1489 1489 1489 1490 1491 1490 1490 1492 1491 1490 1491 1492 1492 1493 1493 1493 1493 1492
1434 1437 1442 1447 1450 1453 1454 1458 1458 1458 1462 1465 1468 1468 1471 1474 1474 1473 1474 1477 1479 1481 1482 1482 1481 1484 1485 1485 1486 1487 1489 1489 1489 1490 1489 1489 1489 1489 1490 1490 1490 1490 1490
1432 1435 1440 1443 1445 1449 1450 1452 1454 1455 1459 1462 1464 1465 1467 1470 1470 1470 1471 1473 1475 1477 1477 1477 1475 1477 1481 1481 1482 1483 1484 1486 1486 1486 1486 1487 1487 1487 1487 1487 1487 1488 1488
1427 1431 1436 1439 1441 1441 1444 1446 1452 1454 1456 1460 1460 1461 1463 1465 1466 1466 1467 1468 1471 1473 1474 1473 1472 1473 1476 1477 1478 1478 1480 1482 1482 1483 1483 1482 1483 1483 1483 1483 1484 1484 1484
1422 1427 1432 1434 1435 1438 1442 1445 1448 1452 1453 1454 1456 1458 1460 1460 1461 1463 1465 1466 1466 1468 1469 1470 1470 1470 1472 1472 1474 1474 1476 1478 1478 1478 1478 1478 1477 1477 1478 1478 1478 1479 1479